| time (UTC) | temp F | wind direction | speed knots | gust knots | rain 1hr in | rain 24hr in | rain mn in | humidity % | barometer mb |
| 20260505041708 | 57 | 45 | 0.9 | 2.6 | 0.00 | 0.00 | 0.00 | 91 | 1010.9 |
| 20260505041519 | 57 | 45 | 0.0 | 2.6 | 0.00 | 0.00 | 0.00 | 91 | 1010.9 |
| 20260505041335 | 57 | 22 | 0.0 | 0.9 | 0.00 | 0.00 | 0.00 | 90 | 1011.0 |
| 20260505041150 | 57 | 22 | 0.0 | 1.7 | 0.00 | 0.00 | 0.00 | 90 | 1011.1 |
| 20260505040947 | 57 | 22 | 0.0 | 1.7 | 0.00 | 0.00 | 0.00 | 90 | 1011.1 |
| 20260505040750 | 57 | 22 | 0.0 | 1.7 | 0.00 | 0.00 | 0.00 | 90 | 1011.1 |
| 20260505040605 | 57 | 22 | 0.9 | 1.7 | 0.00 | 0.00 | 0.00 | 90 | 1011.2 |
| 20260505040425 | 57 | 22 | 0.9 | 1.7 | 0.00 | 0.00 | 0.00 | 90 | 1011.1 |
| 20260505040412 | 57 | 22 | 0.9 | 1.7 | 0.00 | 0.00 | 0.00 | 89 | 1011.2 |
| 20260505040244 | 57 | 22 | 0.9 | 1.7 | 0.00 | 0.00 | 0.00 | 89 | 1011.2 |
| 20260505040050 | 57 | 22 | 0.9 | 1.7 | 0.00 | 0.00 | 0.00 | 89 | 1011.2 |
| 20260505035905 | 57 | 22 | 1.7 | 2.6 | 0.00 | 0.00 | 0.00 | 89 | 1011.3 |
| 20260505035725 | 57 | 292 | 1.7 | 2.6 | 0.00 | 0.00 | 0.00 | 89 | 1011.2 |
| 20260505035539 | 57 | 292 | 1.7 | 2.6 | 0.00 | 0.00 | 0.00 | 89 | 1011.3 |
| 20260505035349 | 57 | 270 | 1.7 | 2.6 | 0.00 | 0.00 | 0.00 | 89 | 1011.2 |
| 20260505035153 | 57 | 270 | 0.9 | 2.6 | 0.00 | 0.00 | 0.00 | 89 | 1011.2 |
| 20260505035010 | 57 | 270 | 0.9 | 2.6 | 0.00 | 0.00 | 0.00 | 89 | 1011.2 |
| 20260505034842 | 57 | 45 | 0.0 | 1.7 | 0.00 | 0.00 | 0.00 | 88 | 1011.1 |
| 20260505034830 | 57 | 45 | 0.0 | 1.7 | 0.00 | 0.00 | 0.00 | 88 | 1011.0 |
| 20260505034645 | 57 | 45 | 0.0 | 0.9 | 0.00 | 0.00 | 0.00 | 88 | 1011.0 |
| 20260505034449 | 57 | 45 | 0.9 | 0.9 | 0.00 | 0.00 | 0.00 | 88 | 1011.0 |
| 20260505034255 | 57 | 45 | 0.9 | 0.9 | 0.00 | 0.00 | 0.00 | 87 | 1010.9 |
| 20260505034110 | 57 | 45 | 1.7 | 2.6 | 0.00 | 0.00 | 0.00 | 87 | 1010.9 |
| 20260505033910 | 57 | 45 | 1.7 | 2.6 | 0.00 | 0.00 | 0.00 | 87 | 1010.8 |
| 20260505033725 | 58 | 45 | 1.7 | 5.2 | 0.00 | 0.00 | 0.00 | 86 | 1010.9 |
| 20260505033537 | 58 | 45 | 1.7 | 5.2 | 0.00 | 0.00 | 0.00 | 86 | 1010.9 |
| 20260505033344 | 58 | 22 | 1.7 | 5.2 | 0.00 | 0.00 | 0.00 | 85 | 1010.9 |
| 20260505033145 | 58 | 45 | 0.9 | 3.5 | 0.00 | 0.00 | 0.00 | 86 | 1010.8 |
| 20260505033102 | 58 | 45 | 0.9 | 2.6 | 0.00 | 0.00 | 0.00 | 85 | 1010.8 |
| 20260505032945 | 58 | 45 | 0.9 | 2.6 | 0.00 | 0.00 | 0.00 | 85 | 1010.8 |
| 20260505032756 | 58 | 45 | 0.9 | 4.3 | 0.00 | 0.00 | 0.00 | 84 | 1010.8 |
| 20260505032601 | 58 | 45 | 1.7 | 4.3 | 0.00 | 0.00 | 0.00 | 84 | 1010.8 |
| 20260505032420 | 58 | 45 | 1.7 | 4.3 | 0.00 | 0.00 | 0.00 | 84 | 1010.9 |
| 20260505032235 | 58 | 90 | 1.7 | 5.2 | 0.00 | 0.00 | 0.00 | 84 | 1011.0 |
| 20260505032049 | 58 | 90 | 2.6 | 5.2 | 0.00 | 0.00 | 0.00 | 84 | 1010.9 |
| 20260505031856 | 58 | 112 | 2.6 | 5.2 | 0.00 | 0.00 | 0.00 | 84 | 1010.9 |
| 20260505031717 | 58 | 45 | 2.6 | 5.2 | 0.00 | 0.00 | 0.00 | 84 | 1010.9 |
| 20260505031535 | 58 | 0 | 2.6 | 5.2 | 0.00 | 0.00 | 0.00 | 84 | 1010.9 |
| 20260505031345 | 58 | 45 | 2.6 | 5.2 | 0.00 | 0.00 | 0.00 | 84 | 1010.9 |
| 20260505031156 | 58 | 0 | 2.6 | 4.3 | 0.00 | 0.00 | 0.00 | 85 | 1011.0 |
| 20260505031010 | 58 | 45 | 2.6 | 5.2 | 0.00 | 0.00 | 0.00 | 85 | 1011.0 |
| 20260505030825 | 58 | 22 | 2.6 | 5.2 | 0.00 | 0.00 | 0.00 | 85 | 1011.0 |
| 20260505030640 | 58 | 338 | 2.6 | 5.2 | 0.00 | 0.00 | 0.00 | 84 | 1011.0 |
| 20260505030459 | 58 | 45 | 2.6 | 4.3 | 0.00 | 0.00 | 0.00 | 84 | 1011.1 |
| 20260505030320 | 58 | 22 | 2.6 | 4.3 | 0.00 | 0.00 | 0.00 | 84 | 1011.1 |
| 20260505030140 | 58 | 22 | 2.6 | 4.3 | 0.00 | 0.00 | 0.00 | 84 | 1011.2 |
| 20260505025959 | 58 | 22 | 2.6 | 4.3 | 0.00 | 0.00 | 0.00 | 84 | 1011.2 |
| 20260505025821 | 58 | 68 | 1.7 | 4.3 | 0.00 | 0.00 | 0.00 | 84 | 1011.2 |
| 20260505025634 | 58 | 68 | 1.7 | 4.3 | 0.00 | 0.00 | 0.00 | 84 | 1011.2 |
| 20260505025455 | 58 | 0 | 1.7 | 4.3 | 0.00 | 0.00 | 0.00 | 84 | 1011.2 |
| 20260505025315 | 58 | 45 | 1.7 | 4.3 | 0.00 | 0.00 | 0.00 | 84 | 1011.3 |
| 20260505025120 | 58 | 45 | 1.7 | 4.3 | 0.00 | 0.00 | 0.00 | 84 | 1011.3 |
| 20260505024925 | 58 | 22 | 0.9 | 4.3 | 0.00 | 0.00 | 0.00 | 84 | 1011.3 |
| 20260505024745 | 58 | 22 | 0.9 | 4.3 | 0.00 | 0.00 | 0.00 | 84 | 1011.3 |
| 20260505024548 | 58 | 22 | 0.9 | 4.3 | 0.00 | 0.00 | 0.00 | 84 | 1011.3 |
| 20260505024400 | 58 | 45 | 0.9 | 4.3 | 0.00 | 0.00 | 0.00 | 84 | 1011.3 |
| 20260505024202 | 58 | 45 | 0.9 | 4.3 | 0.00 | 0.00 | 0.00 | 84 | 1011.3 |
| 20260505024025 | 58 | 45 | 0.9 | 4.3 | 0.00 | 0.00 | 0.00 | 84 | 1011.3 |
| 20260505023825 | 58 | 45 | 0.9 | 4.3 | 0.00 | 0.00 | 0.00 | 84 | 1011.3 |
| 20260505023753 | 58 | 22 | 0.9 | 1.7 | 0.00 | 0.00 | 0.00 | 84 | 1011.3 |
| 20260505023634 | 58 | 22 | 0.9 | 1.7 | 0.00 | 0.00 | 0.00 | 84 | 1011.4 |
| 20260505023455 | 58 | 22 | 0.9 | 1.7 | 0.00 | 0.00 | 0.00 | 84 | 1011.4 |
| 20260505023319 | 58 | 22 | 0.9 | 3.5 | 0.00 | 0.00 | 0.00 | 84 | 1011.5 |
| 20260505023119 | 58 | 22 | 0.9 | 4.3 | 0.00 | 0.00 | 0.00 | 84 | 1011.4 |
| 20260505022925 | 58 | 22 | 0.9 | 4.3 | 0.00 | 0.00 | 0.00 | 84 | 1011.5 |
| 20260505022735 | 58 | 22 | 0.9 | 1.7 | 0.00 | 0.00 | 0.00 | 84 | 1011.4 |
| 20260505022555 | 58 | 45 | 0.9 | 2.6 | 0.00 | 0.00 | 0.00 | 84 | 1011.5 |
| 20260505022200 | 58 | 22 | 0.9 | 2.6 | 0.00 | 0.00 | 0.00 | 84 | 1011.6 |
| 20260505022000 | 58 | 315 | 0.0 | 1.7 | 0.00 | 0.00 | 0.00 | 84 | 1011.5 |
| 20260505021947 | 58 | 315 | 0.9 | 1.7 | 0.00 | 0.00 | 0.00 | 84 | 1011.5 |
| 20260505021822 | 58 | 45 | 0.9 | 1.7 | 0.00 | 0.00 | 0.00 | 84 | 1011.5 |
| 20260505021627 | 58 | 45 | 0.9 | 1.7 | 0.00 | 0.00 | 0.00 | 84 | 1011.5 |
| 20260505021437 | 58 | 45 | 0.9 | 1.7 | 0.00 | 0.00 | 0.00 | 83 | 1011.5 |
| 20260505021245 | 58 | 45 | 0.9 | 2.6 | 0.00 | 0.00 | 0.00 | 83 | 1011.6 |
| 20260505021046 | 58 | 45 | 0.9 | 2.6 | 0.00 | 0.00 | 0.00 | 83 | 1011.6 |
| 20260505020855 | 58 | 45 | 0.9 | 2.6 | 0.00 | 0.00 | 0.00 | 83 | 1011.6 |
| 20260505020703 | 58 | 45 | 1.7 | 4.3 | 0.00 | 0.00 | 0.00 | 83 | 1011.7 |
| 20260505020515 | 58 | 45 | 1.7 | 4.3 | 0.00 | 0.00 | 0.00 | 83 | 1011.6 |
| 20260505020325 | 58 | 45 | 1.7 | 4.3 | 0.00 | 0.00 | 0.00 | 83 | 1011.6 |
| 20260505020136 | 58 | 22 | 1.7 | 4.3 | 0.00 | 0.00 | 0.00 | 83 | 1011.6 |
| 20260505015940 | 58 | 22 | 1.7 | 6.1 | 0.00 | 0.00 | 0.00 | 83 | 1011.6 |
| 20260505015745 | 58 | 45 | 1.7 | 6.1 | 0.00 | 0.00 | 0.00 | 83 | 1011.6 |
| 20260505015545 | 58 | 68 | 1.7 | 6.1 | 0.00 | 0.00 | 0.00 | 83 | 1011.6 |
| 20260505015356 | 58 | 68 | 1.7 | 1.7 | 0.00 | 0.00 | 0.00 | 83 | 1011.6 |
| 20260505015210 | 58 | 292 | 1.7 | 1.7 | 0.00 | 0.00 | 0.00 | 83 | 1011.6 |
| 20260505015021 | 58 | 292 | 1.7 | 4.3 | 0.00 | 0.00 | 0.00 | 83 | 1011.6 |
| 20260505014825 | 58 | 292 | 2.6 | 4.3 | 0.00 | 0.00 | 0.00 | 83 | 1011.7 |
| 20260505014625 | 58 | 292 | 2.6 | 4.3 | 0.00 | 0.00 | 0.00 | 83 | 1011.7 |
| 20260505014434 | 58 | 22 | 2.6 | 4.3 | 0.00 | 0.00 | 0.00 | 83 | 1011.6 |
| 20260505014404 | 59 | 22 | 2.6 | 4.3 | 0.00 | 0.00 | 0.00 | 83 | 1011.7 |
| 20260505014255 | 59 | 45 | 2.6 | 4.3 | 0.00 | 0.00 | 0.00 | 83 | 1011.6 |
| 20260505014110 | 59 | 45 | 2.6 | 4.3 | 0.00 | 0.00 | 0.00 | 83 | 1011.7 |
| 20260505013915 | 59 | 22 | 2.6 | 4.3 | 0.00 | 0.00 | 0.00 | 83 | 1011.8 |
| 20260505013720 | 59 | 292 | 2.6 | 4.3 | 0.00 | 0.00 | 0.00 | 83 | 1011.8 |
| 20260505013530 | 59 | 292 | 2.6 | 4.3 | 0.00 | 0.00 | 0.00 | 83 | 1011.9 |
| 20260505013350 | 59 | 315 | 1.7 | 4.3 | 0.00 | 0.00 | 0.00 | 83 | 1011.8 |
| 20260505013154 | 59 | 292 | 1.7 | 4.3 | 0.00 | 0.00 | 0.00 | 82 | 1011.8 |
| 20260505013000 | 59 | 292 | 1.7 | 4.3 | 0.00 | 0.00 | 0.00 | 82 | 1011.8 |
| 20260505012825 | 59 | 315 | 1.7 | 1.7 | 0.00 | 0.00 | 0.00 | 82 | 1011.7 |
| 20260505012644 | 59 | 338 | 2.6 | 4.3 | 0.00 | 0.00 | 0.00 | 82 | 1011.7 |
| 20260505012555 | 59 | 338 | 2.6 | 4.3 | 0.00 | 0.00 | 0.00 | 82 | 1011.7 |
| 20260505012507 | 59 | 292 | 3.5 | 4.3 | 0.00 | 0.00 | 0.00 | 82 | 1011.8 |
| 20260505012321 | 59 | 292 | 3.5 | 4.3 | 0.00 | 0.00 | 0.00 | 82 | 1011.9 |
| 20260505012130 | 59 | 270 | 2.6 | 5.2 | 0.00 | 0.00 | 0.00 | 82 | 1011.8 |
| 20260505011931 | 59 | 202 | 2.6 | 5.2 | 0.00 | 0.00 | 0.00 | 81 | 1011.9 |
| 20260505011742 | 59 | 292 | 1.7 | 5.2 | 0.00 | 0.00 | 0.00 | 81 | 1011.8 |
| 20260505011545 | 59 | 270 | 1.7 | 4.3 | 0.00 | 0.00 | 0.00 | 81 | 1011.7 |
| 20260505011405 | 59 | 248 | 0.9 | 3.5 | 0.00 | 0.00 | 0.00 | 82 | 1011.7 |
| 20260505011217 | 59 | 68 | 0.9 | 1.7 | 0.00 | 0.00 | 0.00 | 81 | 1011.6 |
| 20260505011023 | 59 | 68 | 1.7 | 4.3 | 0.00 | 0.00 | 0.00 | 81 | 1011.5 |
| 20260505010830 | 59 | 68 | 1.7 | 4.3 | 0.00 | 0.00 | 0.00 | 81 | 1011.5 |
| 20260505010645 | 59 | 68 | 1.7 | 4.3 | 0.00 | 0.00 | 0.00 | 81 | 1011.5 |
| 20260505010500 | 59 | 112 | 1.7 | 4.3 | 0.00 | 0.00 | 0.00 | 81 | 1011.5 |
| 20260505010310 | 59 | 45 | 1.7 | 3.5 | 0.00 | 0.00 | 0.00 | 81 | 1011.5 |
| 20260505010120 | 59 | 68 | 1.7 | 3.5 | 0.00 | 0.00 | 0.00 | 81 | 1011.5 |
| 20260505005925 | 59 | 68 | 2.6 | 5.2 | 0.00 | 0.00 | 0.00 | 81 | 1011.5 |
| 20260505005735 | 59 | 68 | 2.6 | 5.2 | 0.00 | 0.00 | 0.00 | 81 | 1011.5 |
| 20260505005556 | 59 | 68 | 2.6 | 5.2 | 0.00 | 0.00 | 0.00 | 81 | 1011.5 |
| 20260505005512 | 59 | 68 | 2.6 | 5.2 | 0.00 | 0.00 | 0.00 | 81 | 1011.5 |
| 20260505005420 | 59 | 68 | 2.6 | 5.2 | 0.00 | 0.00 | 0.00 | 81 | 1011.5 |
| 20260505005220 | 59 | 68 | 2.6 | 5.2 | 0.00 | 0.00 | 0.00 | 81 | 1011.7 |
| 20260505005038 | 59 | 68 | 2.6 | 5.2 | 0.00 | 0.00 | 0.00 | 81 | 1011.6 |
| 20260505004845 | 59 | 68 | 2.6 | 5.2 | 0.00 | 0.00 | 0.00 | 81 | 1011.6 |
| 20260505004651 | 59 | 68 | 2.6 | 5.2 | 0.00 | 0.00 | 0.00 | 81 | 1011.6 |
| 20260505004454 | 59 | 68 | 2.6 | 5.2 | 0.00 | 0.00 | 0.00 | 81 | 1011.6 |
| 20260505004320 | 59 | 90 | 1.7 | 5.2 | 0.00 | 0.00 | 0.00 | 81 | 1011.6 |
| 20260505004139 | 59 | 68 | 1.7 | 4.3 | 0.00 | 0.00 | 0.00 | 81 | 1011.5 |
| 20260505003940 | 59 | 68 | 1.7 | 4.3 | 0.00 | 0.00 | 0.00 | 81 | 1011.6 |
| 20260505003921 | 59 | 45 | 1.7 | 3.5 | 0.00 | 0.00 | 0.00 | 81 | 1011.6 |
| 20260505003740 | 59 | 45 | 1.7 | 3.5 | 0.00 | 0.00 | 0.00 | 81 | 1011.7 |
| 20260505003600 | 59 | 68 | 1.7 | 3.5 | 0.00 | 0.00 | 0.00 | 81 | 1011.7 |
| 20260505003410 | 59 | 45 | 1.7 | 4.3 | 0.00 | 0.00 | 0.00 | 81 | 1011.7 |
| 20260505003230 | 59 | 45 | 1.7 | 4.3 | 0.00 | 0.00 | 0.00 | 81 | 1011.7 |
| 20260505003028 | 59 | 45 | 1.7 | 4.3 | 0.00 | 0.00 | 0.00 | 81 | 1011.8 |
| 20260505002840 | 59 | 68 | 1.7 | 4.3 | 0.00 | 0.00 | 0.00 | 81 | 1011.8 |
| 20260505002651 | 59 | 68 | 1.7 | 4.3 | 0.00 | 0.00 | 0.00 | 81 | 1011.8 |
| 20260505002511 | 59 | 68 | 2.6 | 4.3 | 0.00 | 0.00 | 0.00 | 81 | 1011.9 |
| 20260505002335 | 59 | 90 | 2.6 | 4.3 | 0.00 | 0.00 | 0.00 | 81 | 1012.0 |
| 20260505002311 | 59 | 68 | 2.6 | 4.3 | 0.00 | 0.00 | 0.00 | 81 | 1011.9 |
| 20260505002139 | 59 | 68 | 2.6 | 4.3 | 0.00 | 0.00 | 0.00 | 81 | 1012.0 |
| 20260505002000 | 59 | 68 | 2.6 | 4.3 | 0.00 | 0.00 | 0.00 | 81 | 1011.9 |
| 20260505001820 | 59 | 90 | 2.6 | 4.3 | 0.00 | 0.00 | 0.00 | 81 | 1011.9 |
| 20260505001625 | 59 | 68 | 2.6 | 4.3 | 0.00 | 0.00 | 0.00 | 81 | 1011.9 |
| 20260505001435 | 59 | 68 | 2.6 | 4.3 | 0.00 | 0.00 | 0.00 | 81 | 1011.9 |
| 20260505001235 | 59 | 68 | 1.7 | 4.3 | 0.00 | 0.00 | 0.00 | 81 | 1011.9 |
| 20260505001035 | 59 | 68 | 1.7 | 3.5 | 0.00 | 0.00 | 0.00 | 81 | 1011.9 |
| 20260505000844 | 59 | 68 | 1.7 | 3.5 | 0.00 | 0.00 | 0.00 | 81 | 1012.0 |
| 20260505000655 | 59 | 68 | 1.7 | 3.5 | 0.00 | 0.00 | 0.00 | 81 | 1012.0 |
| 20260505000507 | 59 | 90 | 1.7 | 3.5 | 0.00 | 0.00 | 0.00 | 81 | 1012.0 |
| 20260505000452 | 59 | 90 | 1.7 | 3.5 | 0.00 | 0.00 | 0.00 | 81 | 1012.1 |
| 20260505000329 | 59 | 90 | 1.7 | 3.5 | 0.00 | 0.00 | 0.00 | 81 | 1012.0 |
| 20260505000145 | 59 | 90 | 1.7 | 3.5 | 0.00 | 0.00 | 0.00 | 81 | 1012.0 |
| 20260505000000 | 59 | 90 | 2.6 | 3.5 | 0.00 | 0.00 | 0.00 | 81 | 1012.1 |
| 20260504235812 | 59 | 90 | 2.6 | 4.3 | 0.00 | 0.00 | 0.00 | 81 | 1012.0 |
| 20260504235630 | 59 | 68 | 2.6 | 6.1 | 0.00 | 0.00 | 0.00 | 81 | 1012.1 |
| 20260504235435 | 59 | 68 | 2.6 | 6.1 | 0.00 | 0.00 | 0.00 | 81 | 1012.1 |
| 20260504235257 | 59 | 68 | 2.6 | 6.1 | 0.00 | 0.00 | 0.00 | 81 | 1012.1 |
| 20260504235105 | 59 | 68 | 1.7 | 4.3 | 0.00 | 0.00 | 0.00 | 81 | 1012.1 |
| 20260504234905 | 59 | 68 | 1.7 | 4.3 | 0.00 | 0.00 | 0.00 | 81 | 1012.1 |
| 20260504234747 | 59 | 90 | 1.7 | 4.3 | 0.00 | 0.00 | 0.00 | 81 | 1012.1 |
| 20260504234725 | 59 | 68 | 1.7 | 4.3 | 0.00 | 0.00 | 0.00 | 81 | 1012.1 |
| 20260504234542 | 59 | 68 | 1.7 | 4.3 | 0.00 | 0.00 | 0.00 | 81 | 1012.1 |
| 20260504234400 | 59 | 68 | 1.7 | 4.3 | 0.00 | 0.00 | 0.00 | 81 | 1012.1 |
| 20260504234215 | 59 | 68 | 1.7 | 4.3 | 0.00 | 0.00 | 0.00 | 81 | 1012.1 |
| 20260504234034 | 59 | 90 | 1.7 | 4.3 | 0.00 | 0.00 | 0.00 | 82 | 1012.0 |
| 20260504233844 | 59 | 90 | 1.7 | 4.3 | 0.00 | 0.00 | 0.00 | 81 | 1012.1 |
| 20260504233705 | 59 | 90 | 1.7 | 4.3 | 0.00 | 0.00 | 0.00 | 81 | 1012.0 |
| 20260504233505 | 59 | 90 | 1.7 | 4.3 | 0.00 | 0.00 | 0.00 | 81 | 1012.1 |
| 20260504233311 | 59 | 90 | 2.6 | 4.3 | 0.00 | 0.00 | 0.00 | 81 | 1012.0 |
| 20260504233115 | 59 | 90 | 2.6 | 4.3 | 0.00 | 0.00 | 0.00 | 81 | 1012.1 |
| 20260504232925 | 59 | 90 | 2.6 | 4.3 | 0.00 | 0.00 | 0.00 | 81 | 1012.1 |
| 20260504232740 | 59 | 90 | 2.6 | 4.3 | 0.00 | 0.00 | 0.00 | 81 | 1012.1 |
| 20260504232600 | 59 | 90 | 2.6 | 4.3 | 0.00 | 0.00 | 0.00 | 81 | 1012.1 |
| 20260504232405 | 59 | 90 | 2.6 | 4.3 | 0.00 | 0.00 | 0.00 | 80 | 1012.2 |
| 20260504232217 | 59 | 68 | 1.7 | 4.3 | 0.00 | 0.00 | 0.00 | 80 | 1012.1 |
| 20260504232018 | 59 | 68 | 1.7 | 4.3 | 0.00 | 0.00 | 0.00 | 80 | 1012.2 |
| 20260504231840 | 59 | 68 | 1.7 | 4.3 | 0.00 | 0.00 | 0.00 | 80 | 1012.2 |
| 20260504231640 | 59 | 68 | 1.7 | 2.6 | 0.00 | 0.00 | 0.00 | 81 | 1012.3 |
| 20260504231505 | 60 | 68 | 1.7 | 3.5 | 0.00 | 0.00 | 0.00 | 81 | 1012.3 |
| 20260504231407 | 60 | 68 | 1.7 | 3.5 | 0.00 | 0.00 | 0.00 | 81 | 1012.2 |
| 20260504231306 | 60 | 68 | 1.7 | 3.5 | 0.00 | 0.00 | 0.00 | 80 | 1012.4 |
| 20260504231129 | 60 | 68 | 1.7 | 4.3 | 0.00 | 0.00 | 0.00 | 80 | 1012.3 |
| 20260504230945 | 60 | 68 | 1.7 | 4.3 | 0.00 | 0.00 | 0.00 | 80 | 1012.3 |
| 20260504230755 | 60 | 68 | 1.7 | 4.3 | 0.00 | 0.00 | 0.00 | 80 | 1012.3 |
| 20260504230605 | 60 | 68 | 1.7 | 4.3 | 0.00 | 0.00 | 0.00 | 81 | 1012.3 |
| 20260504230403 | 60 | 68 | 1.7 | 4.3 | 0.00 | 0.00 | 0.00 | 80 | 1012.4 |
| 20260504230210 | 60 | 90 | 1.7 | 2.6 | 0.00 | 0.00 | 0.00 | 81 | 1012.3 |
| 20260504230025 | 60 | 90 | 1.7 | 2.6 | 0.00 | 0.00 | 0.00 | 81 | 1012.4 |
| 20260504225830 | 60 | 90 | 1.7 | 3.5 | 0.00 | 0.00 | 0.00 | 80 | 1012.4 |
| 20260504225640 | 60 | 90 | 1.7 | 3.5 | 0.00 | 0.00 | 0.00 | 80 | 1012.3 |
| 20260504225527 | 60 | 90 | 1.7 | 3.5 | 0.00 | 0.00 | 0.00 | 80 | 1012.5 |
| 20260504225500 | 60 | 90 | 1.7 | 3.5 | 0.00 | 0.00 | 0.00 | 80 | 1012.5 |
| 20260504225310 | 60 | 90 | 0.9 | 1.7 | 0.00 | 0.00 | 0.00 | 80 | 1012.4 |
| 20260504225124 | 60 | 90 | 0.9 | 1.7 | 0.00 | 0.00 | 0.00 | 80 | 1012.5 |
| 20260504224945 | 60 | 90 | 0.9 | 1.7 | 0.00 | 0.00 | 0.00 | 80 | 1012.6 |
| 20260504224745 | 60 | 90 | 0.9 | 1.7 | 0.00 | 0.00 | 0.00 | 80 | 1012.4 |
| 20260504224549 | 60 | 90 | 0.9 | 1.7 | 0.00 | 0.00 | 0.00 | 80 | 1012.4 |
| 20260504224400 | 60 | 90 | 1.7 | 4.3 | 0.00 | 0.00 | 0.00 | 80 | 1012.4 |
| 20260504224205 | 60 | 90 | 1.7 | 4.3 | 0.00 | 0.00 | 0.00 | 80 | 1012.4 |
| 20260504224020 | 60 | 90 | 1.7 | 4.3 | 0.00 | 0.00 | 0.00 | 80 | 1012.5 |
| 20260504223830 | 60 | 45 | 1.7 | 3.5 | 0.00 | 0.00 | 0.00 | 80 | 1012.5 |
| 20260504223630 | 59 | 45 | 1.7 | 4.3 | 0.00 | 0.00 | 0.00 | 80 | 1012.5 |
| 20260504223450 | 59 | 45 | 1.7 | 4.3 | 0.00 | 0.00 | 0.00 | 80 | 1012.5 |
| 20260504223308 | 59 | 68 | 1.7 | 4.3 | 0.00 | 0.00 | 0.00 | 80 | 1012.5 |
| 20260504223120 | 59 | 68 | 1.7 | 4.3 | 0.00 | 0.00 | 0.00 | 81 | 1012.5 |
| 20260504222929 | 59 | 45 | 0.9 | 2.6 | 0.00 | 0.00 | 0.00 | 81 | 1012.4 |
| 20260504222740 | 59 | 45 | 0.9 | 2.6 | 0.00 | 0.00 | 0.00 | 81 | 1012.4 |
| 20260504222600 | 59 | 45 | 0.9 | 4.3 | 0.00 | 0.00 | 0.00 | 81 | 1012.4 |
| 20260504222418 | 59 | 45 | 0.9 | 4.3 | 0.00 | 0.00 | 0.00 | 81 | 1012.5 |
| 20260504222230 | 59 | 45 | 0.9 | 4.3 | 0.00 | 0.00 | 0.00 | 81 | 1012.5 |
| 20260504222050 | 59 | 45 | 0.9 | 1.7 | 0.00 | 0.00 | 0.00 | 81 | 1012.5 |
| 20260504222012 | 59 | 45 | 0.9 | 1.7 | 0.00 | 0.00 | 0.00 | 81 | 1012.5 |
| 20260504221910 | 59 | 45 | 0.0 | 1.7 | 0.00 | 0.00 | 0.00 | 81 | 1012.5 |
| 20260504221718 | 59 | 45 | 0.0 | 2.6 | 0.00 | 0.00 | 0.00 | 81 | 1012.5 |
| 20260504221542 | 59 | 45 | 0.9 | 2.6 | 0.00 | 0.00 | 0.00 | 81 | 1012.6 |
| 20260504221400 | 59 | 45 | 0.0 | 2.6 | 0.00 | 0.00 | 0.00 | 80 | 1012.6 |
| 20260504221200 | 59 | 45 | 0.0 | 1.7 | 0.00 | 0.00 | 0.00 | 80 | 1012.5 |
| 20260504221020 | 60 | 45 | 0.0 | 1.7 | 0.00 | 0.00 | 0.00 | 80 | 1012.6 |
| 20260504220831 | 60 | 45 | 0.0 | 2.6 | 0.00 | 0.00 | 0.00 | 80 | 1012.5 |
| 20260504220655 | 60 | 45 | 0.9 | 2.6 | 0.00 | 0.00 | 0.00 | 80 | 1012.6 |
| 20260504220510 | 60 | 45 | 0.9 | 2.6 | 0.00 | 0.00 | 0.00 | 79 | 1012.6 |
| 20260504220330 | 60 | 45 | 0.9 | 1.7 | 0.00 | 0.00 | 0.00 | 79 | 1012.6 |
| 20260504220130 | 60 | 45 | 0.9 | 4.3 | 0.00 | 0.00 | 0.00 | 79 | 1012.6 |
| 20260504215947 | 60 | 45 | 0.9 | 4.3 | 0.00 | 0.00 | 0.00 | 79 | 1012.6 |
| 20260504215750 | 60 | 45 | 0.9 | 4.3 | 0.00 | 0.00 | 0.00 | 79 | 1012.6 |
| 20260504215552 | 60 | 45 | 0.9 | 3.5 | 0.00 | 0.00 | 0.00 | 79 | 1012.6 |
| 20260504215415 | 60 | 45 | 0.9 | 3.5 | 0.00 | 0.00 | 0.00 | 78 | 1012.6 |
| 20260504215225 | 60 | 45 | 0.9 | 3.5 | 0.00 | 0.00 | 0.00 | 78 | 1012.6 |
| 20260504215028 | 60 | 45 | 0.0 | 1.7 | 0.00 | 0.00 | 0.00 | 78 | 1012.6 |
| 20260504214838 | 60 | 45 | 0.0 | 1.7 | 0.00 | 0.00 | 0.00 | 78 | 1012.6 |
| 20260504214645 | 60 | 22 | 0.0 | 0.9 | 0.00 | 0.00 | 0.00 | 78 | 1012.6 |
| 20260504214500 | 60 | 22 | 0.9 | 0.9 | 0.00 | 0.00 | 0.00 | 77 | 1012.7 |
| 20260504214428 | 60 | 22 | 0.9 | 1.7 | 0.00 | 0.00 | 0.00 | 77 | 1012.6 |
| 20260504214310 | 61 | 22 | 0.9 | 1.7 | 0.00 | 0.00 | 0.00 | 77 | 1012.7 |
| 20260504214120 | 61 | 22 | 0.9 | 1.7 | 0.00 | 0.00 | 0.00 | 76 | 1012.6 |
| 20260504213945 | 61 | 22 | 0.9 | 1.7 | 0.00 | 0.00 | 0.00 | 76 | 1012.7 |
| 20260504213744 | 61 | 22 | 0.9 | 1.7 | 0.00 | 0.00 | 0.00 | 76 | 1012.7 |
| 20260504213545 | 61 | 22 | 0.9 | 1.7 | 0.00 | 0.00 | 0.00 | 76 | 1012.7 |
| 20260504213348 | 61 | 22 | 1.7 | 1.7 | 0.00 | 0.00 | 0.00 | 75 | 1012.7 |
| 20260504213150 | 61 | 22 | 1.7 | 1.7 | 0.00 | 0.00 | 0.00 | 75 | 1012.7 |
| 20260504212959 | 61 | 22 | 1.7 | 4.3 | 0.00 | 0.00 | 0.00 | 75 | 1012.7 |
| 20260504212756 | 61 | 0 | 1.7 | 4.3 | 0.00 | 0.00 | 0.00 | 74 | 1012.8 |
| 20260504212612 | 61 | 45 | 1.7 | 4.3 | 0.00 | 0.00 | 0.00 | 74 | 1012.8 |
| 20260504212415 | 62 | 45 | 1.7 | 3.5 | 0.00 | 0.00 | 0.00 | 74 | 1012.8 |
| 20260504212225 | 62 | 68 | 1.7 | 3.5 | 0.00 | 0.00 | 0.00 | 74 | 1012.6 |
| 20260504212028 | 62 | 68 | 1.7 | 4.3 | 0.00 | 0.00 | 0.00 | 74 | 1012.7 |
| 20260504211830 | 62 | 45 | 0.9 | 4.3 | 0.00 | 0.00 | 0.00 | 74 | 1012.8 |
| 20260504211630 | 62 | 45 | 0.9 | 4.3 | 0.00 | 0.00 | 0.00 | 74 | 1012.8 |
| 20260504211441 | 62 | 45 | 0.9 | 1.7 | 0.00 | 0.00 | 0.00 | 74 | 1012.8 |
| 20260504211255 | 62 | 45 | 0.9 | 1.7 | 0.00 | 0.00 | 0.00 | 73 | 1012.8 |
| 20260504211221 | 62 | 45 | 0.9 | 1.7 | 0.00 | 0.00 | 0.00 | 73 | 1012.8 |
| 20260504211103 | 62 | 45 | 0.9 | 1.7 | 0.00 | 0.00 | 0.00 | 73 | 1012.9 |
| 20260504210908 | 62 | 45 | 0.9 | 3.5 | 0.00 | 0.00 | 0.00 | 73 | 1012.7 |
| 20260504210720 | 62 | 45 | 0.9 | 3.5 | 0.00 | 0.00 | 0.00 | 73 | 1012.8 |
| 20260504210540 | 62 | 45 | 0.9 | 3.5 | 0.00 | 0.00 | 0.00 | 72 | 1012.9 |
| 20260504210350 | 62 | 45 | 0.9 | 3.5 | 0.00 | 0.00 | 0.00 | 72 | 1012.8 |
| 20260504210215 | 62 | 45 | 0.9 | 2.6 | 0.00 | 0.00 | 0.00 | 72 | 1012.8 |
| 20260504210025 | 62 | 45 | 0.9 | 1.7 | 0.00 | 0.00 | 0.00 | 72 | 1012.9 |
| 20260504205845 | 62 | 45 | 1.7 | 1.7 | 0.00 | 0.00 | 0.00 | 72 | 1012.8 |
| 20260504205655 | 62 | 45 | 1.7 | 2.6 | 0.00 | 0.00 | 0.00 | 71 | 1012.8 |
| 20260504205500 | 62 | 45 | 1.7 | 4.3 | 0.00 | 0.00 | 0.00 | 71 | 1012.7 |
| 20260504205331 | 62 | 45 | 1.7 | 4.3 | 0.00 | 0.00 | 0.00 | 71 | 1012.7 |
| 20260504205305 | 62 | 45 | 1.7 | 4.3 | 0.00 | 0.00 | 0.00 | 71 | 1012.8 |
| 20260504205120 | 62 | 68 | 1.7 | 4.3 | 0.00 | 0.00 | 0.00 | 71 | 1012.8 |
| 20260504204937 | 62 | 22 | 0.9 | 4.3 | 0.00 | 0.00 | 0.00 | 71 | 1012.6 |
| 20260504204750 | 62 | 45 | 0.9 | 1.7 | 0.00 | 0.00 | 0.00 | 71 | 1012.7 |
| 20260504204555 | 63 | 45 | 1.7 | 2.6 | 0.00 | 0.00 | 0.00 | 71 | 1012.7 |
| 20260504204400 | 63 | 45 | 1.7 | 2.6 | 0.00 | 0.00 | 0.00 | 71 | 1012.8 |
| 20260504204220 | 63 | 22 | 1.7 | 2.6 | 0.00 | 0.00 | 0.00 | 71 | 1012.7 |
| 20260504204037 | 63 | 22 | 1.7 | 2.6 | 0.00 | 0.00 | 0.00 | 70 | 1012.7 |
| 20260504203840 | 63 | 22 | 1.7 | 3.5 | 0.00 | 0.00 | 0.00 | 70 | 1012.8 |
| 20260504203651 | 63 | 22 | 1.7 | 3.5 | 0.00 | 0.00 | 0.00 | 70 | 1012.7 |
| 20260504203606 | 63 | 22 | 1.7 | 3.5 | 0.00 | 0.00 | 0.00 | 70 | 1012.8 |
| 20260504203515 | 63 | 45 | 1.7 | 3.5 | 0.00 | 0.00 | 0.00 | 71 | 1012.8 |
| 20260504203330 | 63 | 45 | 0.9 | 2.6 | 0.00 | 0.00 | 0.00 | 70 | 1012.8 |
| 20260504203140 | 63 | 45 | 0.9 | 2.6 | 0.00 | 0.00 | 0.00 | 71 | 1012.8 |
| 20260504202945 | 63 | 45 | 0.9 | 2.6 | 0.00 | 0.00 | 0.00 | 70 | 1012.8 |
| 20260504202805 | 63 | 45 | 0.9 | 2.6 | 0.00 | 0.00 | 0.00 | 71 | 1012.8 |
| 20260504202604 | 63 | 22 | 0.0 | 1.7 | 0.00 | 0.00 | 0.00 | 70 | 1012.8 |
| 20260504202413 | 63 | 22 | 0.9 | 1.7 | 0.00 | 0.00 | 0.00 | 70 | 1012.8 |
| 20260504202230 | 63 | 22 | 0.9 | 1.7 | 0.00 | 0.00 | 0.00 | 70 | 1012.7 |
| 20260504202048 | 63 | 22 | 0.9 | 2.6 | 0.00 | 0.00 | 0.00 | 70 | 1012.8 |
| 20260504202012 | 63 | 22 | 0.9 | 2.6 | 0.00 | 0.00 | 0.00 | 70 | 1012.8 |
| 20260504201910 | 63 | 22 | 0.9 | 2.6 | 0.00 | 0.00 | 0.00 | 70 | 1012.7 |
| 20260504201730 | 63 | 22 | 0.9 | 2.6 | 0.00 | 0.00 | 0.00 | 70 | 1012.8 |
| 20260504201535 | 63 | 22 | 0.9 | 1.7 | 0.00 | 0.00 | 0.00 | 70 | 1012.7 |
| 20260504201341 | 63 | 22 | 0.9 | 1.7 | 0.00 | 0.00 | 0.00 | 70 | 1012.7 |
| 20260504201203 | 63 | 22 | 0.9 | 1.7 | 0.00 | 0.00 | 0.00 | 70 | 1012.7 |
| 20260504201015 | 63 | 45 | 0.9 | 1.7 | 0.00 | 0.00 | 0.00 | 70 | 1012.6 |
| 20260504200819 | 63 | 45 | 0.9 | 1.7 | 0.00 | 0.00 | 0.00 | 70 | 1012.7 |
| 20260504200618 | 63 | 45 | 0.9 | 2.6 | 0.00 | 0.00 | 0.00 | 70 | 1012.7 |
| 20260504200422 | 63 | 45 | 0.9 | 2.6 | 0.00 | 0.00 | 0.00 | 70 | 1012.7 |
| 20260504200240 | 63 | 45 | 0.9 | 2.6 | 0.00 | 0.00 | 0.00 | 70 | 1012.7 |
| 20260504200150 | 63 | 45 | 0.9 | 2.6 | 0.00 | 0.00 | 0.00 | 69 | 1012.6 |
| 20260504200045 | 63 | 45 | 0.9 | 2.6 | 0.00 | 0.00 | 0.00 | 69 | 1012.7 |
| 20260504195900 | 63 | 45 | 0.9 | 1.7 | 0.00 | 0.00 | 0.00 | 70 | 1012.7 |
| 20260504195705 | 63 | 45 | 0.9 | 1.7 | 0.00 | 0.00 | 0.00 | 70 | 1012.6 |
| 20260504195522 | 63 | 0 | 0.9 | 4.3 | 0.00 | 0.00 | 0.00 | 71 | 1012.7 |
| 20260504195345 | 63 | 0 | 0.0 | 4.3 | 0.00 | 0.00 | 0.00 | 71 | 1012.7 |
| 20260504195150 | 63 | 0 | 0.0 | 4.3 | 0.00 | 0.00 | 0.00 | 71 | 1012.6 |
| 20260504194950 | 63 | 0 | 0.0 | 0.0 | 0.00 | 0.00 | 0.00 | 72 | 1012.7 |
| 20260504194800 | 63 | 0 | 0.0 | 0.9 | 0.00 | 0.00 | 0.00 | 72 | 1012.6 |
| 20260504194618 | 63 | 0 | 0.0 | 0.0 | 0.00 | 0.00 | 0.00 | 72 | 1012.6 |
| 20260504194423 | 63 | 0 | 0.0 | 0.0 | 0.00 | 0.00 | 0.00 | 72 | 1012.6 |
| 20260504194342 | 63 | 0 | 0.0 | 0.0 | 0.00 | 0.00 | 0.00 | 72 | 1012.6 |
| 20260504194230 | 63 | 0 | 0.0 | 0.0 | 0.00 | 0.00 | 0.00 | 72 | 1012.6 |
| 20260504194041 | 63 | 0 | 0.0 | 0.0 | 0.00 | 0.00 | 0.00 | 72 | 1012.6 |
| 20260504193855 | 63 | 0 | 0.0 | 0.0 | 0.00 | 0.00 | 0.00 | 73 | 1012.6 |
| 20260504193705 | 63 | 0 | 0.0 | 0.0 | 0.00 | 0.00 | 0.00 | 72 | 1012.5 |
| 20260504193505 | 63 | 0 | 0.0 | 0.0 | 0.00 | 0.00 | 0.00 | 71 | 1012.6 |
| 20260504193310 | 64 | 0 | 0.0 | 0.0 | 0.00 | 0.00 | 0.00 | 71 | 1012.6 |
| 20260504193115 | 64 | 0 | 0.0 | 0.0 | 0.00 | 0.00 | 0.00 | 71 | 1012.6 |
| 20260504192918 | 64 | 0 | 0.0 | 0.0 | 0.00 | 0.00 | 0.00 | 71 | 1012.6 |
| 20260504192742 | 64 | 0 | 0.0 | 0.0 | 0.00 | 0.00 | 0.00 | 70 | 1012.6 |
| 20260504192536 | 64 | 0 | 0.0 | 0.0 | 0.00 | 0.00 | 0.00 | 69 | 1012.5 |
| 20260504192348 | 64 | 0 | 0.0 | 0.0 | 0.00 | 0.00 | 0.00 | 69 | 1012.6 |
| 20260504192211 | 64 | 0 | 0.0 | 0.0 | 0.00 | 0.00 | 0.00 | 69 | 1012.5 |
| 20260504192017 | 64 | 0 | 0.0 | 0.0 | 0.00 | 0.00 | 0.00 | 69 | 1012.4 |
| 20260504191840 | 65 | 0 | 0.0 | 0.0 | 0.00 | 0.00 | 0.00 | 69 | 1012.4 |
| 20260504191700 | 65 | 0 | 0.0 | 0.0 | 0.00 | 0.00 | 0.00 | 68 | 1012.5 |
| 20260504191515 | 65 | 0 | 0.0 | 0.0 | 0.00 | 0.00 | 0.00 | 68 | 1012.5 |
| 20260504191337 | 65 | 0 | 0.0 | 0.0 | 0.00 | 0.00 | 0.00 | 68 | 1012.5 |
| 20260504191144 | 65 | 0 | 0.0 | 0.0 | 0.00 | 0.00 | 0.00 | 68 | 1012.5 |
| 20260504191008 | 65 | 0 | 0.0 | 0.0 | 0.00 | 0.00 | 0.00 | 68 | 1012.5 |
| 20260504190820 | 65 | 0 | 0.0 | 0.0 | 0.00 | 0.00 | 0.00 | 67 | 1012.6 |
| 20260504190640 | 65 | 0 | 0.0 | 0.0 | 0.00 | 0.00 | 0.00 | 67 | 1012.4 |
| 20260504190455 | 65 | 0 | 0.0 | 0.0 | 0.00 | 0.00 | 0.00 | 67 | 1012.5 |
| 20260504190255 | 66 | 0 | 0.0 | 0.0 | 0.00 | 0.00 | 0.00 | 67 | 1012.5 |
| 20260504190115 | 66 | 0 | 0.0 | 1.7 | 0.00 | 0.00 | 0.00 | 67 | 1012.5 |
| 20260504185938 | 66 | 0 | 0.0 | 0.0 | 0.00 | 0.00 | 0.00 | 66 | 1012.4 |
| 20260504185751 | 66 | 0 | 0.0 | 0.0 | 0.00 | 0.00 | 0.00 | 66 | 1012.4 |
| 20260504185555 | 66 | 0 | 0.0 | 0.0 | 0.00 | 0.00 | 0.00 | 66 | 1012.5 |
| 20260504185410 | 66 | 0 | 0.0 | 0.0 | 0.00 | 0.00 | 0.00 | 66 | 1012.4 |
| 20260504185211 | 66 | 0 | 0.0 | 0.0 | 0.00 | 0.00 | 0.00 | 65 | 1012.5 |
| 20260504185155 | 66 | 0 | 0.0 | 0.0 | 0.00 | 0.00 | 0.00 | 65 | 1012.4 |
| 20260504185020 | 67 | 0 | 0.0 | 0.0 | 0.00 | 0.00 | 0.00 | 65 | 1012.5 |
| 20260504184840 | 67 | 0 | 0.0 | 0.0 | 0.00 | 0.00 | 0.00 | 65 | 1012.5 |
| 20260504184655 | 67 | 0 | 0.0 | 0.9 | 0.00 | 0.00 | 0.00 | 65 | 1012.4 |
| 20260504184502 | 67 | 0 | 0.0 | 0.9 | 0.00 | 0.00 | 0.00 | 65 | 1012.5 |
| 20260504184320 | 67 | 0 | 0.0 | 0.9 | 0.00 | 0.00 | 0.00 | 65 | 1012.4 |
| 20260504184135 | 67 | 0 | 0.0 | 0.9 | 0.00 | 0.00 | 0.00 | 65 | 1012.4 |
| 20260504183955 | 67 | 0 | 0.0 | 0.0 | 0.00 | 0.00 | 0.00 | 65 | 1012.5 |
| 20260504183802 | 68 | 0 | 0.0 | 0.0 | 0.00 | 0.00 | 0.00 | 64 | 1012.5 |
| 20260504183610 | 68 | 0 | 0.0 | 0.0 | 0.00 | 0.00 | 0.00 | 64 | 1012.5 |
| 20260504183424 | 68 | 0 | 0.0 | 0.0 | 0.00 | 0.00 | 0.00 | 63 | 1012.5 |
| 20260504183346 | 68 | 0 | 0.0 | 0.0 | 0.00 | 0.00 | 0.00 | 63 | 1012.4 |
| 20260504183230 | 68 | 0 | 0.0 | 0.0 | 0.00 | 0.00 | 0.00 | 63 | 1012.4 |
| 20260504183031 | 68 | 0 | 0.0 | 0.0 | 0.00 | 0.00 | 0.00 | 63 | 1012.4 |
| 20260504182840 | 68 | 0 | 0.0 | 0.0 | 0.00 | 0.00 | 0.00 | 62 | 1012.4 |
| 20260504182650 | 69 | 0 | 0.0 | 0.0 | 0.00 | 0.00 | 0.00 | 62 | 1012.3 |
| 20260504182500 | 69 | 0 | 0.0 | 0.0 | 0.00 | 0.00 | 0.00 | 61 | 1012.4 |
| 20260504182305 | 69 | 0 | 0.0 | 0.0 | 0.00 | 0.00 | 0.00 | 61 | 1012.4 |
| 20260504182125 | 69 | 0 | 0.0 | 0.0 | 0.00 | 0.00 | 0.00 | 61 | 1012.4 |
| 20260504181930 | 69 | 0 | 0.0 | 0.0 | 0.00 | 0.00 | 0.00 | 60 | 1012.3 |
| 20260504181740 | 69 | 0 | 0.0 | 0.0 | 0.00 | 0.00 | 0.00 | 60 | 1012.4 |
| 20260504181540 | 70 | 0 | 0.0 | 0.9 | 0.00 | 0.00 | 0.00 | 60 | 1012.4 |
| 20260504181456 | 70 | 0 | 0.0 | 0.9 | 0.00 | 0.00 | 0.00 | 60 | 1012.4 |
| 20260504181343 | 70 | 0 | 0.0 | 0.9 | 0.00 | 0.00 | 0.00 | 59 | 1012.5 |
| 20260504181204 | 70 | 0 | 0.0 | 0.0 | 0.00 | 0.00 | 0.00 | 59 | 1012.4 |
| 20260504181020 | 70 | 0 | 0.0 | 0.0 | 0.00 | 0.00 | 0.00 | 58 | 1012.3 |
| 20260504180840 | 70 | 0 | 0.0 | 0.0 | 0.00 | 0.00 | 0.00 | 58 | 1012.3 |
| 20260504180648 | 71 | 45 | 0.0 | 0.0 | 0.00 | 0.00 | 0.00 | 58 | 1012.3 |
| 20260504180500 | 71 | 45 | 0.9 | 0.9 | 0.00 | 0.00 | 0.00 | 57 | 1012.3 |
| 20260504180310 | 71 | 45 | 0.9 | 0.9 | 0.00 | 0.00 | 0.00 | 57 | 1012.3 |
| 20260504180125 | 71 | 45 | 0.9 | 4.3 | 0.00 | 0.00 | 0.00 | 57 | 1012.3 |
| 20260504175941 | 71 | 45 | 0.9 | 4.3 | 0.00 | 0.00 | 0.00 | 56 | 1012.3 |
| 20260504175750 | 72 | 45 | 0.9 | 4.3 | 0.00 | 0.00 | 0.00 | 56 | 1012.3 |
| 20260504175605 | 72 | 292 | 0.9 | 1.7 | 0.00 | 0.00 | 0.00 | 56 | 1012.3 |
| 20260504175410 | 72 | 292 | 0.9 | 1.7 | 0.00 | 0.00 | 0.00 | 56 | 1012.3 |
| 20260504175220 | 72 | 270 | 0.9 | 1.7 | 0.00 | 0.00 | 0.00 | 55 | 1012.2 |
| 20260504175029 | 73 | 270 | 0.9 | 1.7 | 0.00 | 0.00 | 0.00 | 54 | 1012.3 |
| 20260504174844 | 73 | 270 | 1.7 | 4.3 | 0.00 | 0.00 | 0.00 | 54 | 1012.2 |
| 20260504174645 | 74 | 270 | 1.7 | 4.3 | 0.00 | 0.00 | 0.00 | 54 | 1012.2 |
| 20260504174442 | 74 | 68 | 1.7 | 4.3 | 0.00 | 0.00 | 0.00 | 53 | 1012.1 |
| 20260504174300 | 74 | 315 | 1.7 | 2.6 | 0.00 | 0.00 | 0.00 | 53 | 1012.2 |
| 20260504174223 | 74 | 315 | 1.7 | 2.6 | 0.00 | 0.00 | 0.00 | 53 | 1012.2 |
| 20260504174114 | 74 | 248 | 1.7 | 5.2 | 0.00 | 0.00 | 0.00 | 53 | 1012.2 |
| 20260504173920 | 75 | 270 | 1.7 | 5.2 | 0.00 | 0.00 | 0.00 | 51 | 1012.2 |
| 20260504173730 | 75 | 22 | 1.7 | 5.2 | 0.00 | 0.00 | 0.00 | 51 | 1012.1 |
| 20260504173535 | 75 | 315 | 0.9 | 3.5 | 0.00 | 0.00 | 0.00 | 50 | 1012.1 |
| 20260504173355 | 75 | 45 | 0.9 | 3.5 | 0.00 | 0.00 | 0.00 | 50 | 1012.2 |
| 20260504173215 | 74 | 45 | 1.7 | 4.3 | 0.00 | 0.00 | 0.00 | 50 | 1012.2 |
| 20260504173025 | 74 | 270 | 1.7 | 4.3 | 0.00 | 0.00 | 0.00 | 51 | 1012.2 |
| 20260504172841 | 75 | 45 | 1.7 | 4.3 | 0.00 | 0.00 | 0.00 | 51 | 1012.2 |
| 20260504172655 | 75 | 292 | 1.7 | 4.3 | 0.00 | 0.00 | 0.00 | 50 | 1012.1 |
| 20260504172520 | 74 | 338 | 1.7 | 4.3 | 0.00 | 0.00 | 0.00 | 51 | 1012.2 |
| 20260504172455 | 74 | 338 | 1.7 | 4.3 | 0.00 | 0.00 | 0.00 | 51 | 1012.2 |
| 20260504172300 | 74 | 45 | 1.7 | 4.3 | 0.00 | 0.00 | 0.00 | 51 | 1012.1 |
| 20260504172115 | 74 | 292 | 1.7 | 4.3 | 0.00 | 0.00 | 0.00 | 52 | 1012.2 |
| 20260504171930 | 74 | 292 | 1.7 | 4.3 | 0.00 | 0.00 | 0.00 | 51 | 1012.2 |
| 20260504171750 | 74 | 45 | 1.7 | 4.3 | 0.00 | 0.00 | 0.00 | 51 | 1012.1 |
| 20260504171605 | 74 | 0 | 2.6 | 4.3 | 0.00 | 0.00 | 0.00 | 51 | 1012.2 |
| 20260504171415 | 74 | 338 | 1.7 | 3.5 | 0.00 | 0.00 | 0.00 | 51 | 1012.2 |
| 20260504171225 | 74 | 338 | 2.6 | 4.3 | 0.00 | 0.00 | 0.00 | 52 | 1012.2 |
| 20260504171033 | 74 | 315 | 2.6 | 4.3 | 0.00 | 0.00 | 0.00 | 53 | 1012.1 |
| 20260504170957 | 74 | 292 | 2.6 | 4.3 | 0.00 | 0.00 | 0.00 | 53 | 1012.1 |
| 20260504170855 | 75 | 292 | 2.6 | 4.3 | 0.00 | 0.00 | 0.00 | 53 | 1012.2 |
| 20260504170700 | 75 | 292 | 1.7 | 4.3 | 0.00 | 0.00 | 0.00 | 52 | 1012.2 |
| 20260504170500 | 75 | 338 | 1.7 | 4.3 | 0.00 | 0.00 | 0.00 | 51 | 1012.2 |
| 20260504170310 | 75 | 338 | 2.6 | 5.2 | 0.00 | 0.00 | 0.00 | 50 | 1012.1 |
| 20260504170130 | 75 | 68 | 2.6 | 5.2 | 0.00 | 0.00 | 0.00 | 50 | 1012.1 |
| 20260504160420 | 73 | 315 | 3.5 | 4.3 | 0.00 | 0.00 | 0.00 | 49 | 1012.1 |
| 20260504160225 | 72 | 248 | 3.5 | 4.3 | 0.00 | 0.00 | 0.00 | 51 | 1012.2 |
| 20260504151126 | 75 | 292 | 3.5 | 6.1 | 0.00 | 0.00 | 0.00 | 50 | 1012.2 |
| 20260504151101 | 75 | 270 | 3.5 | 6.1 | 0.00 | 0.00 | 0.00 | 50 | 1012.2 |
| 20260504150925 | 75 | 270 | 3.5 | 5.2 | 0.00 | 0.00 | 0.00 | 50 | 1012.3 |
| 20260504150728 | 75 | 292 | 3.5 | 6.1 | 0.00 | 0.00 | 0.00 | 49 | 1012.3 |
| 20260504150548 | 75 | 292 | 3.5 | 6.1 | 0.00 | 0.00 | 0.00 | 49 | 1012.3 |
| 20260504150359 | 75 | 292 | 3.5 | 6.1 | 0.00 | 0.00 | 0.00 | 48 | 1012.3 |
| 20260504150215 | 74 | 270 | 2.6 | 5.2 | 0.00 | 0.00 | 0.00 | 47 | 1012.3 |
| 20260504141300 | 73 | 248 | 4.3 | 8.7 | 0.00 | 0.00 | 0.00 | 53 | 1012.8 |
| 20260504141110 | 73 | 292 | 3.5 | 7.8 | 0.00 | 0.00 | 0.00 | 52 | 1012.7 |
| 20260504140925 | 74 | 248 | 3.5 | 7.8 | 0.00 | 0.00 | 0.00 | 53 | 1012.7 |
| 20260504140740 | 74 | 225 | 3.5 | 7.8 | 0.00 | 0.00 | 0.00 | 53 | 1012.7 |
| 20260504140637 | 74 | 225 | 3.5 | 7.8 | 0.00 | 0.00 | 0.00 | 51 | 1012.7 |
| 20260504140548 | 74 | 270 | 2.6 | 6.1 | 0.00 | 0.00 | 0.00 | 50 | 1012.7 |
| 20260504140405 | 74 | 292 | 2.6 | 5.2 | 0.00 | 0.00 | 0.00 | 49 | 1012.7 |
| 20260504140225 | 74 | 315 | 3.5 | 7.0 | 0.00 | 0.00 | 0.00 | 49 | 1012.7 |
| 20260504130820 | 71 | 270 | 4.3 | 6.1 | 0.00 | 0.00 | 0.00 | 60 | 1012.9 |
| 20260504130625 | 71 | 270 | 4.3 | 6.1 | 0.00 | 0.00 | 0.00 | 61 | 1013.0 |
| 20260504130431 | 71 | 248 | 4.3 | 7.0 | 0.00 | 0.00 | 0.00 | 60 | 1013.0 |
| 20260504130240 | 71 | 270 | 4.3 | 7.8 | 0.00 | 0.00 | 0.00 | 60 | 1013.0 |
| 20260504120236 | 73 | 248 | 5.2 | 8.7 | 0.00 | 0.00 | 0.00 | 49 | 1013.0 |
| 20260504110644 | 72 | 225 | 5.2 | 8.7 | 0.00 | 0.00 | 0.00 | 51 | 1013.1 |
| 20260504110455 | 72 | 270 | 6.1 | 8.7 | 0.00 | 0.00 | 0.00 | 52 | 1013.0 |
| 20260504110300 | 72 | 225 | 5.2 | 9.6 | 0.00 | 0.00 | 0.00 | 52 | 1013.1 |
| 20260504110110 | 72 | 248 | 5.2 | 9.6 | 0.00 | 0.00 | 0.00 | 52 | 1013.1 |
| 20260504100450 | 70 | 315 | 6.1 | 9.6 | 0.00 | 0.00 | 0.00 | 56 | 1013.4 |
| 20260504100250 | 70 | 248 | 6.1 | 9.6 | 0.00 | 0.00 | 0.00 | 55 | 1013.6 |
| 20260504081949 | 69 | 270 | 4.3 | 6.1 | 0.00 | 0.00 | 0.00 | 62 | 1013.6 |
| 20260504081810 | 68 | 292 | 4.3 | 6.1 | 0.00 | 0.00 | 0.00 | 64 | 1013.6 |
| 20260504081625 | 68 | 292 | 5.2 | 8.7 | 0.00 | 0.00 | 0.00 | 63 | 1013.4 |
| 20260504081435 | 68 | 292 | 5.2 | 8.7 | 0.00 | 0.00 | 0.00 | 64 | 1013.5 |
| 20260504081258 | 68 | 248 | 5.2 | 7.0 | 0.00 | 0.00 | 0.00 | 63 | 1013.5 |
| 20260504081119 | 68 | 225 | 4.3 | 7.8 | 0.00 | 0.00 | 0.00 | 62 | 1013.5 |
| 20260504081029 | 68 | 315 | 5.2 | 7.8 | 0.00 | 0.00 | 0.00 | 64 | 1013.4 |
| 20260504080940 | 68 | 248 | 5.2 | 7.8 | 0.00 | 0.00 | 0.00 | 65 | 1013.4 |
| 20260504080750 | 68 | 270 | 5.2 | 8.7 | 0.00 | 0.00 | 0.00 | 64 | 1013.5 |
| 20260504080600 | 68 | 292 | 5.2 | 8.7 | 0.00 | 0.00 | 0.00 | 65 | 1013.5 |
| 20260504080410 | 67 | 270 | 4.3 | 8.7 | 0.00 | 0.00 | 0.00 | 63 | 1013.4 |
| 20260504080225 | 67 | 225 | 4.3 | 7.8 | 0.00 | 0.00 | 0.00 | 65 | 1013.4 |
| 20260504070335 | 65 | 292 | 4.3 | 7.0 | 0.00 | 0.00 | 0.00 | 66 | 1013.0 |
| 20260504070248 | 65 | 270 | 3.5 | 7.0 | 0.00 | 0.00 | 0.00 | 66 | 1013.0 |
| 20260504070136 | 65 | 270 | 3.5 | 7.0 | 0.00 | 0.00 | 0.00 | 66 | 1012.9 |
| 20260504060210 | 64 | 270 | 4.3 | 6.1 | 0.00 | 0.00 | 0.00 | 67 | 1012.8 |
| 20260504050730 | 62 | 202 | 1.7 | 3.5 | 0.00 | 0.00 | 0.00 | 67 | 1012.3 |
| 20260504050530 | 62 | 202 | 1.7 | 4.3 | 0.00 | 0.00 | 0.00 | 67 | 1012.4 |
| 20260504050344 | 61 | 270 | 1.7 | 4.3 | 0.00 | 0.00 | 0.00 | 67 | 1012.4 |
| 20260504050145 | 62 | 225 | 1.7 | 4.3 | 0.00 | 0.00 | 0.00 | 67 | 1012.4 |
| 20260504045955 | 62 | 225 | 1.7 | 4.3 | 0.00 | 0.00 | 0.00 | 67 | 1012.3 |
| 20260504045755 | 62 | 225 | 1.7 | 4.3 | 0.00 | 0.00 | 0.00 | 67 | 1012.2 |
| 20260504045600 | 62 | 270 | 1.7 | 3.5 | 0.00 | 0.00 | 0.00 | 67 | 1012.2 |
| 20260504045411 | 62 | 270 | 1.7 | 3.5 | 0.00 | 0.00 | 0.00 | 67 | 1012.2 |
| 20260504045223 | 62 | 270 | 1.7 | 3.5 | 0.00 | 0.00 | 0.00 | 67 | 1012.1 |